Airfield :







YOU CAN JOIN US ON...

 
LOGIN :

Register | Disclaimer

   EN    FR    IT 

 









Legend :    VFR   Marginal VFR   IFR   Intensive IFR   Very Intensive IFR
Visi :
Ceiling :
>= 8 km
>= 3000ft
5 to 8 km
1000 to 3000 ft
1500m to 5 km
500 to 1000 ft
800 to 1500m
200 to 500 ft
< 800m
< 200 ft
Symbols :   Thunderstorms  Fog  Heavy snow  Heavy precipitations  Wind > 20 kt






- Airport Elevation : 333 ft


KWVL - Waterville Robert Lafleur

CURRENT METAR :
  • 170456Z AUTO 00000KT 10SM CLR M10/M14 A3049 RMK AO2 SLP363 T11001139 410171106 FZRANO

EXPIRED METARs :
  • 170356Z AUTO 02005KT 10SM CLR M08/M13 A3049 RMK AO2 SLP361 T10831133 FZRANO
  • 170256Z AUTO 36004KT 10SM CLR M08/M13 A3052 RMK AO2 SLP370 T10831133 52009 FZRANO

TAF N/A



MET'MAP, your aeronautical weather chart ! - Copyright ORBIFLY December 2007 - Disclaimer

ORBIFLY MET'MAP TEAM :

Programming & Development : Alexandra Zaïnal
Concept & Development : Baudouin d'Aumeries
Co-Development & Prog : Marc-Olivier Méhu
Technical & hardware support : Manuel Goepfert

Contact : metmap@orbifly.com




SOURCES & CREDITS :

   NOAA